Regional Weather Roundup
Issued by NWS State College, PA

Home | Current Version | Previous Version | Text Only | Print | Product List | Glossary Off
Versions: 1 2 3 4 5 6 7 8 9 10 11 12 13 14 15 16 17 18 19 20 21 22 23 24 25 26 27 28 29 30 31 32 33 34 35 36 37 38 39 40 41 42 43 44 45 46 47 48 49 50

000
ASUS41 KCTP 222303
RWRCTP

REGIONAL WEATHER ROUNDUP
NATIONAL WEATHER SERVICE STATE COLLEGE PA
700 PM EDT MON MAY 22 2017

Note: "fair" indicates few or no clouds below 12,000 feet with no
significant weather and/or obstructions to visibility.

* = STATION THAT DOES NOT REPORT PRECIPITATION /E.G. RAIN...SNOW...ETC/
    THUNDER OR FOG.

PAZ002>004-007>009-013>016-020>023-029>032-230000-
WESTERN PENNSYLVANIA

CITY           SKY/WX    TMP DP  RH WIND       PRES   REMARKS
ERIE           MOSUNNY   61  42  49 W10G26    30.00F
MEADVILLE      CLOUDY    61  45  55 W8        30.01F
FRANKLIN*      CLOUDY    61  43  51 W9        30.03R
NEW CASTLE     FAIR      63  44  50 W5        30.04R
BEAVER COUNTY  SUNNY     63  45  51 W6        30.03S
BUTLER*        CLOUDY    63  45  51 W6        30.03R
PITTSBURGH INT CLOUDY    66  47  50 NW12      30.02S
PITTSBURGH     PTSUNNY   64  45  49 W6        30.02R
INDIANA*       NOT AVBL
LATROBE        PTSUNNY   64  48  55 SW9       30.03S
WASHINGTON CO* PTSUNNY   63  46  55 W6        30.05S
$$

PAZ004>006-010>012-017>019-024>028-033>037-041-042-045-046-049>053-230000-
CENTRAL PENNSYLVANIA

CITY           SKY/WX    TMP DP  RH WIND       PRES   REMARKS
BRADFORD       CLOUDY    60  42  51 W12       30.00R
DUBOIS         CLOUDY    61  45  55 W12       30.00R
CLEARFIELD     CLOUDY    63  46  54 W8        30.00R
JOHNSTOWN      PTSUNNY   59  47  64 W12       30.02S
ALTOONA        CLOUDY    66  49  54 W10       30.01R
STATE COLLEGE  SUNNY     66  50  55 W7        29.98R
WILLIAMSPORT   CLOUDY    65  58  78 SE7       29.93S
SELINSGROVE    CLOUDY    64  58  80 SW5       29.95S
FT INDIANTOWN  CLOUDY    60  60 100 CALM      29.97R
CAPITAL CITY   CLOUDY    65  59  81 E6        29.96S
HARRISBURG     CLOUDY    64  61  90 CALM      29.96R
YORK           CLOUDY    66  63  90 E3        29.96S
$$

PAZ038>040-043-044-047-048-054-055-060>062-067>071-230000-
EASTERN PENNSYLVANIA

CITY           SKY/WX    TMP DP  RH WIND       PRES   REMARKS
SCRANTON       CLOUDY    63  56  78 SW6       29.96R
MOUNT POCONO   FOG       54  54 100 E3        29.98R VSB 3/4
ALLENTOWN      CLOUDY    61  56  83 CALM      29.97S
QUAKERTOWN*    CLOUDY    63  63 100 CALM      29.98S
READING        CLOUDY    63  60  90 CALM      29.96S
LANCASTER      CLOUDY    64  62  93 SE3       29.97S
COATESVILLE    CLOUDY    63  63 100 CALM      29.99R
POTTSTOWN      CLOUDY    62  60  93 CALM      29.98S
BLUE BELL      CLOUDY    61  61 100 CALM      29.98S
DOYLESTOWN     CLOUDY    62  62 100 CALM      29.96F
WILLOW GROVE   NOT AVBL
NORTH PHILA    CLOUDY    66  62  87 CALM      29.98S
PHILADELPHIA   CLOUDY    66  62  87 CALM      29.97S
$$




USA.gov is the U.S. government's official web portal to all federal, state and local government web resources and services.